Location: Csohesd
(46.2500°N, 22.6167°E)
Time: 04:34:43
(UTC+00:00)

Lacrosse 4 Rocket - Pass Details

Date: 21 October 2021
Orbit: 537 x 619 km, 68.0° (Epoch: 30 November)

Event Time Altitude Azimuth Distance (km) Brightness Sun altitude
Rises 17:15:25 0° 331° (NNW) 2,803 5.4 -18.5°
Reaches altitude 10° 17:17:40 10° 335° (NNW) 1,914 4.4 -18.9°
Maximum altitude 17:21:55 61° 56° (NE) 681 1.5 -19.6°
Enters shadow 17:22:46 50° 104° (ESE) 769 1.6 -19.7°
